TimeEST,TemperatureF,Dew PointF,Humidity,Sea Level PressureIn,VisibilityMPH,Wind Direction,Wind SpeedMPH,Gust SpeedMPH,PrecipitationIn,Events,Conditions,WindDirDegrees,DateUTC
12:54 AM,37.0,28.9,73,29.83,-9999.0,WNW,13.8,23.0,N/A,,Unknown,300,2013-11-08 05:54:00
1:54 AM,36.0,27.0,70,29.85,-9999.0,WNW,13.8,-,N/A,,Unknown,300,2013-11-08 06:54:00
2:54 AM,34.0,26.1,73,29.86,-9999.0,WNW,9.2,-,N/A,,Unknown,300,2013-11-08 07:54:00
3:54 AM,33.1,25.0,72,29.88,-9999.0,WNW,12.7,-,N/A,,Unknown,300,2013-11-08 08:54:00
4:54 AM,30.9,25.0,79,29.90,-9999.0,WNW,11.5,-,N/A,,Unknown,290,2013-11-08 09:54:00
5:54 AM,30.9,23.0,72,29.91,-9999.0,WNW,11.5,-,N/A,,Unknown,290,2013-11-08 10:54:00
6:54 AM,32.0,23.0,69,29.94,-9999.0,West,11.5,-,N/A,,Unknown,260,2013-11-08 11:54:00
7:54 AM,34.0,23.0,64,29.95,-9999.0,WSW,8.1,-,N/A,,Unknown,250,2013-11-08 12:54:00
8:54 AM,39.0,28.9,67,29.94,-9999.0,West,9.2,18.4,N/A,,Unknown,270,2013-11-08 13:54:00
9:54 AM,41.0,32.0,70,29.93,-9999.0,West,13.8,21.9,N/A,,Unknown,270,2013-11-08 14:54:00
10:54 AM,44.1,32.0,63,29.92,-9999.0,West,11.5,18.4,N/A,,Unknown,280,2013-11-08 15:54:00
11:54 AM,43.0,30.0,60,29.91,-9999.0,WNW,12.7,-,N/A,,Unknown,290,2013-11-08 16:54:00
12:54 PM,44.1,27.0,51,29.89,-9999.0,West,17.3,31.1,N/A,,Unknown,280,2013-11-08 17:54:00
1:54 PM,42.1,30.0,62,29.91,-9999.0,West,16.1,24.2,N/A,,Unknown,280,2013-11-08 18:54:00
2:54 PM,43.0,25.0,49,29.91,-9999.0,West,21.9,35.7,N/A,,Unknown,280,2013-11-08 19:54:00
3:54 PM,41.0,25.0,53,29.93,-9999.0,WNW,23.0,38.0,N/A,,Unknown,290,2013-11-08 20:54:00
4:54 PM,39.9,24.1,53,29.97,-9999.0,WNW,18.4,27.6,N/A,,Unknown,300,2013-11-08 21:54:00
5:54 PM,37.9,21.9,53,30.01,-9999.0,WNW,15.0,27.6,N/A,,Unknown,290,2013-11-08 22:54:00
6:54 PM,37.0,21.9,54,30.04,-9999.0,WNW,13.8,23.0,N/A,,Unknown,300,2013-11-08 23:54:00
7:54 PM,36.0,19.0,50,30.07,-9999.0,WNW,17.3,27.6,N/A,,Unknown,300,2013-11-09 00:54:00
8:54 PM,34.0,19.9,56,30.09,-9999.0,WNW,12.7,21.9,N/A,,Unknown,300,2013-11-09 01:54:00
9:54 PM,33.1,19.9,59,30.10,-9999.0,West,12.7,-,N/A,,Unknown,280,2013-11-09 02:54:00
10:54 PM,32.0,21.0,64,30.10,-9999.0,West,13.8,-,N/A,,Unknown,280,2013-11-09 03:54:00
11:54 PM,30.9,21.0,67,30.12,-9999.0,West,12.7,-,N/A,,Unknown,280,2013-11-09 04:54:00